Home   Weather   Arnhem   Past weeks

Flag for Netherlands Past Weather in Arnhem, Netherlands — Yesterday and Last 2 Weeks

46 °F


Feels Like: 46 °F
Forecast: 44 / 52 °F
Wind: 2 mph from North

Location: Deelen

Current Time: Oct 26, 2016 at 12:54:09 AM

Latest Report: Oct 25, 2016 at 11:55 PM

Visibility: 3 mi

Pressure: 30.33 "Hg

Humidity: 93%

Dew Point: 45 °F

Location of ArnhemLocation

Past Weather in Arnhem — Graph


Arnhem Temperature Yesterday

Maximum temperature yesterday: 50 °F (at 12:55 PM)
Minimum temperature yesterday: 46 °F (at 12:25 AM)
Average temperature yesterday: 47 °F

High & Low Weather Summary for the Past Weeks

High66 °F (Oct 16, 3:25 PM)100% (Oct 11, 4:25 AM)30.33 "Hg (Oct 11, 4:25 AM)
Low28 °F (Oct 23, 7:25 AM)50% (Oct 23, 3:25 PM)29.65 "Hg (Oct 15, 1:55 AM)
Average47 °F89%30.00 "Hg
* Reported Oct 10 11:25 PM — Oct 25 11:25 PM, Arnhem, Weather by CustomWeather, © 2016

Note: Actual official high and low records may vary slightly from our data, if they occured in-between our weather recording intervals... More about our weather records


Arnhem Weather History for the Previous 24 Hours

Scroll right to see more
Time TempWeatherWind HumidityBarometerVisibility
11:25 PM
Tue, Oct 25
46 °FFog.1 mph93%30.33 "Hg3 mi
10:55 PM46 °FFog.2 mph93%30.33 "Hg3 mi
10:25 PM46 °FFog.1 mph93%30.33 "Hg3 mi
9:55 PM46 °FFog.2 mph93%30.33 "Hg3 mi
9:25 PM46 °FFog.1 mph93%30.30 "Hg3 mi
8:55 PM48 °FFog.2 mph87%30.30 "Hg4 mi
8:25 PM48 °FFog.3 mph87%30.30 "Hg4 mi
7:55 PM48 °FFog.3 mph87%30.30 "Hg4 mi
7:25 PM48 °FFog.No wind87%30.27 "Hg4 mi
6:55 PM48 °FFog.1 mph87%30.27 "Hg4 mi
6:25 PM48 °FFog.2 mph87%30.27 "Hg4 mi
5:55 PM48 °FFog.2 mph87%30.27 "Hg4 mi
5:25 PM48 °FFog.5 mph87%30.27 "Hg3 mi
4:55 PM48 °FFog.5 mph87%30.24 "Hg3 mi
4:25 PM48 °FFog.7 mph87%30.24 "Hg4 mi
3:55 PM48 °FFog.5 mph94%30.24 "Hg4 mi
3:25 PM48 °FFog.5 mph94%30.24 "Hg4 mi
2:55 PM48 °FFog.2 mph87%30.24 "Hg4 mi
2:25 PM48 °FFog.3 mph94%30.24 "Hg6 mi
1:55 PM48 °FFog.3 mph87%30.21 "Hg5 mi
1:25 PM48 °FFog.5 mph94%30.21 "Hg4 mi
12:55 PM50 °FFog.5 mph88%30.21 "Hg4 mi
12:25 PM48 °FFog.6 mph94%30.21 "Hg2 mi
11:55 AM46 °FFog.5 mph100%30.18 "Hg3 mi
11:25 AM46 °FFog.2 mph100%30.18 "Hg3 mi
10:55 AM46 °FFog.3 mph93%30.18 "Hg2 mi
10:25 AM46 °FFog.6 mph93%30.18 "Hg1 mi
9:55 AM46 °FFog.5 mph100%30.18 "Hg1 mi
9:25 AM46 °FFog.5 mph93%30.15 "Hg1 mi
8:55 AM46 °FFog.3 mph93%30.15 "Hg1 mi
8:25 AM46 °FFog.3 mph93%30.12 "Hg1 mi
7:55 AM46 °FFog.6 mph93%30.12 "Hg1 mi
7:25 AM46 °FFog.2 mph93%30.09 "Hg2 mi
6:55 AM46 °FFog.3 mph93%30.09 "Hg2 mi
6:25 AM46 °FFog.6 mph93%30.07 "Hg2 mi
5:55 AM46 °FFog.3 mph100%30.07 "Hg1 mi
5:25 AM46 °FFog.5 mph93%30.07 "Hg1 mi
4:55 AM46 °FFog.5 mph100%30.07 "Hg1 mi
4:25 AM46 °FFog.5 mph100%30.04 "Hg1 mi
3:55 AM46 °FFog.5 mph100%30.04 "Hg1 mi
3:25 AM46 °FFog.5 mph93%30.04 "Hg1 mi
2:55 AM46 °FFog.3 mph100%30.04 "Hg1 mi
2:25 AM46 °FFog.2 mph93%30.01 "Hg1 mi
1:55 AM46 °FFog.2 mph93%30.01 "Hg1 mi
1:25 AM46 °FFog.5 mph93%30.01 "Hg1 mi
12:55 AM46 °FFog.5 mph93%30.01 "Hg1 mi
12:25 AM46 °FFog.3 mph93%29.98 "Hg1 mi
Weather by CustomWeather, © 2016

See weather overviewHow to use our weather pages